{"data":{"norad_id":56470,"epoch":"2026-05-25T02:48:04.106880Z","epoch_age_seconds":58204,"freshness":"FRESH","line1":"1 56470U 23064Y   26145.11671420  .00001913  00000+0  16807-3 0  9995","line2":"2 56470  69.9984 291.9018 0002975 270.0671  90.0148 14.98328561167187","mean_motion":14.98328561,"eccentricity":0.0002975,"inclination_deg":69.9984,"raan_deg":291.9018,"arg_perigee_deg":270.0671,"mean_anomaly_deg":90.0148,"bstar":0.00016807,"rev_number":16718,"period_min":96.107091427192,"perigee_km":569.99265722785,"apogee_km":574.1280246457,"semimajor_km":6950.1973409368,"source":"CELESTRAK","updated_at":"2026-05-25T13:38:18.070996Z"}}